Regional Weather Roundup
Issued by NWS Midland/Odessa, TX

Skip options and go directly to product.
Home | Oldest Version | Previous Version | Current Version | All | Graphics & Text | Save Text | Print | Product List | Glossary On

Skip product version selection by date and time.   
714
ASUS44 KMAF 292210
RWRMAF
MIDLAND AREA WEATHER ROUNDUP
NATIONAL WEATHER SERVICE MIDLAND TX
500 PM CDT FRI MAY 29 2015

...IN SOUTHWEST TEXAS AND SOUTHEAST NEW MEXICO...

CITY           SKY/WX    TMP DP  RH WIND       PRES   REMARKS
ALPINE         MOSUNNY   87  50  27 E13G21    30.07F
ANDREWS        FAIR      83  61  47 E8        29.98F
ARTESIA        SUNNY     88  45  22 SE12      29.96F
BIG SPRING     PTSUNNY   84  64  51 SE3       29.98F
CARLSBAD       SUNNY     89  53  29 VRB5      29.94F
DRYDEN           N/A     86  66  51 E9G17     29.90R
FORT STOCKTON  SUNNY     84  56  38 CALM      29.96S
GUAD PASS      MOSUNNY   81  46  29 E14G28    30.10F
HOBBS          SUNNY     84  52  32 E8        29.99F
MARFA          MOSUNNY   90  28  11 W8        30.06F
MIDLAND AIRPK  MOSUNNY   84  62  47 S6        29.96F
MIDLAND INTL   SUNNY     83  62  49 VRB6      29.96F
ODESSA         SUNNY     84  61  45 E8        29.97F
PECOS          SUNNY     88  51  28 CALM      29.91F
PRESIDIO       FAIR      98  27   8 SE5G16    29.87F
SEMINOLE       SUNNY     87  54  32 E8        29.99F
SNYDER         MOSUNNY   81  65  59 SE5       29.97F
WINK           SUNNY     90  54  29 CALM      29.92F
$$
...OTHER STATIONS IN TEXAS...

CITY           SKY/WX    TMP DP  RH WIND       PRES   REMARKS
ABILENE        MOSUNNY   84  68  58 SW6       29.95F
AMARILLO       MOSUNNY   79  50  36 N13       30.04F
AUSTIN         MOSUNNY   87  67  51 SW9       29.92F
BROWNSVILLE    SUNNY     85  74  69 S15       29.92F
CORPUS CHRISTI MOSUNNY   86  71  60 SE14      29.93F
DALLAS FTW     CLOUDY    76  65  68 W6        29.91F
DEL RIO        MOSUNNY   86  70  58 SE16      29.88F
EL PASO        MOSUNNY   95  21   7 W13G20    29.96F
HOUSTON INT    MOSUNNY   88  64  44 S9        29.94F
LUBBOCK        PTSUNNY   81  58  45 E6        30.00F
SAN ANGELO     PTSUNNY   84  67  56 S9        29.93F
SAN ANTONIO    MOSUNNY   86  69  56 S12       29.94F
WACO           MOSUNNY   86  65  49 S7        29.92F
WICHITA FALLS  NOT AVBL
$$
...OTHER LOCATIONS IN NEW MEXICO...

CITY           SKY/WX    TMP DP  RH WIND       PRES   REMARKS
ALAMAGORDO     MOSUNNY   91  21   8 W8G21     29.99F
ALBUQUERQUE    PTSUNNY   75  34  22 SW20      30.13F
CANNON AFB     MOSUNNY   78  57  47 E14       30.05F
CLOVIS         PTSUNNY   77  55  47 NE10        N/A
HOLLOMAN AFB   MOSUNNY   92  16   6 VRB6      29.97F
ROSWELL        MOSUNNY   89  39  17 SE6       29.97F
RUIDOSO        PTSUNNY   73  37  27 S5        30.21S
SANTA FE       MOSUNNY   79  22  12 W14G32    30.13F
TRUTH OR CONSE MOSUNNY   87  24  10 MISG      30.02F
TUCUMCARI      PTSUNNY   80  54  40 E12       30.03F
$$

USA.gov is the U.S. government's official web portal to all federal, state and local government web resources and services.